Regional Weather Roundup
Issued by NWS Northern Indiana

Home | Current Version | Previous Version | Graphics & Text | Print | Product List | Glossary On
Versions: 1 2 3 4 5 6 7 8 9 10 11 12 13 14 15 16 17 18 19 20 21 22 23 24 25 26 27 28 29 30 31 32 33 34 35 36 37 38 39 40 41 42 43 44 45 46 47 48 49 50
000
ASUS43 KIWX 232200
RWRIWX

KIWX WEATHER ROUNDUP
NATIONAL WEATHER SERVICE NORTHERN INDIANA
600 PM EDT SAT JUL 23 2016

NOTE: "FAIR" INDICATES FEW OR NO CLOUDS BELOW 12,000 FEET WITH NO
SIGNIFICANT WEATHER AND/OR OBSTRUCTIONS TO VISIBILITY.

* THESE STATIONS ARE NOT UNDER NWS QUALITY CONTROL. THEY ALSO MAY NOT
  REPORT WEATHER SUCH AS PRECIPITATION OR FOG.

INZ001>027-232300-
NORTHERN INDIANA

CITY           SKY/WX    TMP DP  RH WIND       PRES   REMARKS
GARY*          PTSUNNY   90 N/A N/A S7        29.94S
KNOX*          CLOUDY    88  68  51 SW5       29.94F
SOUTH BEND     PTSUNNY   90  75  61 SW5       29.96S HX 100
ELKHART*       CLOUDY    90  77  66 E3        29.96F HX 102
MONTICELLO*    CLOUDY    89  72  55 SW6       29.94F HX  96
WARSAW*        CLOUDY    88  73  62 SW3       29.96S HX  96
ANGOLA*          N/A     91  86  84 CALM      29.97F HX 122
FORT WAYNE     PTSUNNY   90  73  57 SW5       29.96F HX  98
PERU/GRISSOM   MOSUNNY   90  75  60 SW8       29.95F HX 100

$$
INZ028>050-232300-
CENTRAL INDIANA

CITY           SKY/WX    TMP DP  RH WIND       PRES   REMARKS
LAFAYETTE      MOSUNNY   87  76  69 VRB6      29.94F HX  97
KOKOMO*        CLOUDY    88  73  62 S7        29.96F HX  96
MUNCIE*        MOSUNNY   91  71  51 NW8       29.97F HX  97
INDIANAPOLIS   PTSUNNY   89  72  56 SW7       29.96F HX  96

$$
MIZ043>046-050>051-056>058-064>065-071>073-077>080-232300-
SOUTHWEST LOWER MICHIGAN

CITY           SKY/WX    TMP DP  RH WIND       PRES   REMARKS
BATTLE CREEK   CLOUDY    87  68  52 SW6       29.98F
BENTON HARBOR  CLOUDY    87  72  60 NW5       29.95S
COLDWATER*     SUNNY     89  60  37 CALM      29.97F
HOLLAND        PTSUNNY   87  71  58 W7        29.97S
GRAND RAPIDS   PTSUNNY   91  62  37 CALM      29.96S
KALAMAZOO      CLOUDY    90  63  40 VRB3      29.97S
STURGIS*       SUNNY     89  63  41 CALM      29.96S
THREE RIVERS*  FAIR      91  57  31 CALM      29.97S

$$
OHZ001>008-015>018-024>025-232300-
NORTHWEST OHIO

CITY           SKY/WX    TMP DP  RH WIND       PRES   REMARKS
DEFIANCE       MOSUNNY   93  60  33 NE3       29.95F
FINDLAY        CLOUDY    91  69  48 SW5       29.96F HX  96
TOLEDO EXPRESS CLOUDY    93  70  46 VRB3      29.95F HX  99
TOLEDO METCALF PTSUNNY   92  64  39 E8        29.96S
LIMA           CLOUDY    89  71  55 CALM      29.97F HX  95

$$
AND FOR LAKE MICHIGAN COASTAL AND OPEN LAKE BUOY OBSERVATIONS

STATION/POSITION TEMP    WIND        PRES    VSBY  WAVE
                 AIR SEA DIR/SP/G                  HT/PER
                 (F)     (DEG/KT/KT) (MB)    (MI)  (FT/S)
CALUMET HARBOR    83      90/  8/ 11 1012.8F
MICHIGAN CITY     80      10/  8/  9   N/A
BURNS HARBOR      83      80/  7/  9 1014.2F
SAINT JOSEPH      84     330/  2/  2 1015.2F
SOUTH LAKE BUOY   78 78   70/  4/  4 1013.5          0
4 MI NW BRIDGMAN  81     320/  2/  4 1013.8F         1
MICHIGAN CITY     80 79   40/  6/  8   N/A           1

$$
&&




USA.gov is the U.S. government's official web portal to all federal, state and local government web resources and services.